Location: ??????
(31.2056°N, 45.3906°E)
Time: 13:55:25
(UTC+00:00)

Cosmos 2218 Rocket - Pass Details

Date: 09 April 2020
Orbit: 957 x 1005 km, 82.9° (Epoch: 05 June)

Event Time Altitude Azimuth Distance (km) Brightness Sun altitude
Rises 17:29:44 0° 360° (N) 3,669 7.4 -26.3°
Reaches altitude 10° 17:32:19 10° 4° (N) 2,726 6.6 -26.8°
Enters shadow 17:37:32 51° 52° (NE) 1,218 4.3 -27.8°
